This demonstration page uses our WeatherBlox Daily Observations layout. Learn more.

39.29038, -76.61219

Hourly Observations for March 14, 2019

Temp ( °F °C ) Dew Point ( °F °C ) Humidity (%) Winds ( mph kmh ) Pressure ( in mb ) Visibility ( mi km ) Precip ( " mm )
12:54 am 00:54 undefined 46 7.8 33 0.6 61 61 undefined N/A 30.25 1024 N/A 0 0
1:54 am 01:54 undefined 45 7.2 34 1.1 66 66 undefined N/A 30.25 1024 N/A 0 0
2:54 am 02:54 undefined 45 7.2 35 1.7 68 68 undefined N/A 30.23 1024 N/A 0 0
3:54 am 03:54 undefined 44 6.7 36 2.2 73 73 undefined N/A 30.21 1023 N/A 0 0
4:54 am 04:54 undefined 44 6.7 36 2.2 73 73 undefined N/A 30.19 1022 N/A 0 0
5:54 am 05:54 undefined 44 6.7 36 2.2 73 73 undefined N/A 30.18 1022 N/A 0 0
6:54 am 06:54 undefined 43 6.1 37 2.8 80 80 undefined N/A 30.18 1022 N/A 0 0
7:54 am 07:54 undefined 44 6.7 37 2.8 76 76 undefined N/A 30.18 1022 N/A 0 0
8:54 am 08:54 undefined 47 8.3 37 2.8 69 69 undefined N/A 30.18 1022 N/A 0 0
9:54 am 09:54 undefined 49 9.4 37 2.8 64 64 undefined N/A 30.17 1022 N/A 0 0
10:54 am 10:54 undefined 52 11.1 38 3.3 59 59 undefined N/A 30.16 1021 N/A 0 0
11:54 am 11:54 undefined 56 13.3 40 4.4 55 55 undefined N/A 30.14 1021 N/A 0 0
12:54 pm 12:54 undefined 59 15 42 5.6 54 54 undefined N/A 30.11 1020 N/A 0 0
1:54 pm 13:54 undefined 63 17.2 45 7.2 52 52 undefined N/A 30.09 1019 N/A 0 0
2:54 pm 14:54 undefined 63 17.2 45 7.2 52 52 undefined N/A 30.05 1018 N/A 0 0
3:54 pm 15:54 undefined 65 18.3 47 8.3 52 52 undefined N/A 30.03 1017 N/A 0 0
4:54 pm 16:54 undefined 65 18.3 47 8.3 52 52 undefined N/A 30.02 1017 N/A 0 0
5:54 pm 17:54 undefined 64 17.8 48 8.9 56 56 undefined N/A 30.01 1016 N/A 0 0
6:54 pm 18:54 undefined 63 17.2 48 8.9 58 58 undefined N/A 29.99 1016 N/A 0 0
7:54 pm 19:54 undefined 61 16.1 47 8.3 60 60 undefined N/A 29.99 1016 N/A 0 0
8:54 pm 20:54 undefined 59 15 48 8.9 67 67 undefined N/A 29.99 1016 N/A 0 0
9:54 pm 21:54 undefined 58 14.4 47 8.3 67 67 undefined N/A 29.99 1016 N/A 0 0
10:54 pm 22:54 undefined 57 13.9 47 8.3 69 69 undefined N/A 29.97 1015 N/A 0 0
11:54 pm 23:54 undefined 57 13.9 47 8.3 69 69 undefined N/A 29.96 1015 N/A 0 0

Powered by AerisWeather